Find Starlink 34574

NORAD ID: 64714 Int'l Des: 2025-142 Owner: SPXS Country: US Constellation: starlink operational
LEOCIRCULAR

Aktuelle Ansicht

3D-Globus wird geladen...

Über Starlink 34574

Beschreibung wird geladen...

Nächste Überflüge

Passes for default location (London). Set your location on the main map for personalized predictions.

Höhenverlauf

Loading altitude history...

Zweizeiliger Elementsatz

1 64714U 25142U 26149.29781150 .00004195 00000-0 35908-3 0 9998
2 64714 70.0004 111.2681 0003872 265.5259 94.5458 14.98338559 51566
Epoch: 29. Mai 2026 • Age: 18 hours

Aktueller Status

Höhe 586.0 km
Geschwindigkeit 7.57 km/s
Subsatellitenpunkt 69.15°N, 83.44°W
Startdatum 28. Juni 2025
Alter 0.9 years
Typ internet

Technische Details

Klassifizierung Payload
Masse 575.00 kg
Trockenmasse 530.00 kg
Gesamtmasse 575.00 kg
Länge 0.30 m
Durchmesser 4.10 m
Spannweite 29.00 m
Form Box + pan
Hersteller SPXS
Bus-Typ Starlink V2MO
Phasenstatus In Orbit
Besitzer/Staat SPXS/US

Most Searched